Regional Weather Roundup
Issued by NWS Glasgow, MT

Home | Current Version | Previous Version | Text Only | Print | Product List | Glossary On
Versions: 1 2 3 4 5 6 7 8 9 10 11 12 13 14 15 16 17 18 19 20 21 22 23 24 25 26 27
000
ASUS45 KGGW 311215
RWRGGW
HOURLY WEATHER ROUNDUP FOR NORTHEAST MONTANA
NATIONAL WEATHER SERVICE GLASGOW MONTANA
600 AM MDT FRI OCT 31 2014

NOTE: "FAIR" INDICATES FEW OR NO CLOUDS BELOW 12,000 FEET WITH NO
SIGNIFICANT WEATHER AND/OR OBSTRUCTIONS TO VISISBILITY.

NORTHEAST MONTANA


CITY           SKY/WX    TMP DP  RH WIND       PRES   REMARKS
GLASGOW        PTCLDY    33  28  81 SE23      30.13F
6HR MIN TEMP:  32; 6HR MAX TEMP:  36;

WOLF POINT     CLOUDY    36  30  79 SE9       30.24F
JORDAN           N/A     33  30  88 E13       30.12F
SIDNEY         CLOUDY    34  27  75 SE23      30.32F
GLENDIVE       CLOUDY    34  28  80 SE17      30.27F
SCOBEY           N/A     31  24  76 SE16G30   30.17

FORT PECK REPORTS


CITY           SKY/WX    TMP DP  RH WIND       PRES   REMARKS

SOUTHEAST MONTANA


CITY           SKY/WX    TMP DP  RH WIND       PRES   REMARKS
BILLINGS       CLOUDY    35  29  78 NW7       30.05F
MILES CITY     CLEAR     34  29  82 SE23G30   30.19F
BAKER          CLOUDY    31  28  89 SE26G36   30.28F
LIVINGSTON     MOCLDY    30  25  81 CALM      30.03F

CENTRAL MONTANA


CITY           SKY/WX    TMP DP  RH WIND       PRES   REMARKS
HAVRE          CLEAR     32  30  92 E12       29.91F
LEWISTOWN      PTCLDY    41  30  65 SE6       29.96F
GREAT FALLS    CLOUDY    54  30  40 S12G22    29.86F
CUT BANK       MOCLDY    31  29  92 E5        29.86F
HELENA         MOCLDY    36  31  82 CALM      29.94F
BUTTE          MOCLDY    32  28  85 SE3       29.98F
BOZEMAN        MOCLDY    34  29  82 SW5       29.98F

WESTERN MONTANA


CITY           SKY/WX    TMP DP  RH WIND       PRES   REMARKS
MISSOULA       CLOUDY    35  35 100 CALM      29.88F
KALISPELL      NOT AVBL

NORTH DAKOTA


CITY           SKY/WX    TMP DP  RH WIND       PRES   REMARKS
WILLISTON      CLOUDY    31  25  78 S18G25    30.35F
DICKINSON      CLOUDY    27  22  81 S20       30.36F
MINOT          PTCLDY    17  12  80 SE8       30.48F
BISMARCK       CLEAR     14  12  92 SE5       30.54F

SOUTHERN SASKATCHEWAN


CITY           SKY/WX    TMP DP  RH WIND       PRES   REMARKS
REGINA         CLOUDY    25  23  93 SE25G35   30.25F
MOOSE JAW      FLURRIES  32  28  86 SE15G21   30.18F
ESTEVAN        PTCLDY    18  16  93 E9        30.37F
SWIFT CURRENT  CLOUDY    34  30  86 S29G39    29.96F




USA.gov is the U.S. government's official web portal to all federal, state and local government web resources and services.